Location: ??? ?????
(30.6482°N, 60.5850°E)
Time: 18:23:12
(UTC+00:00)

Meteor 1-16 Rocket - Pass Details

Date: 09 April 2020
Orbit: 790 x 907 km, 81.2° (Epoch: 06 June)

Event Time Altitude Azimuth Distance (km) Brightness Sun altitude
Rises 15:02:10 0° 185° (S) 3,285 7.2 -9.3°
Reaches altitude 10° 15:04:30 10° 185° (S) 2,368 6.4 -9.8°
Maximum altitude 15:09:51 87° 97° (E) 820 4.1 -10.9°
Drops below altitude 10° 15:15:23 10° 8° (N) 2,446 6.7 -12.0°
Sets 15:17:50 0° 8° (N) 3,402 7.5 -12.5°
